User: anonymous   Login
Location: Columbia
(38.9520°N, 92.3340°W)
Time: 04:12:50
(UTC-05:00)
Language:

Cosmos 1633 - Orbit

View from above orbital plane
View from above orbital plane
View from above satellite
View from above satellite

Ground track
Ground track

The orbit data is extracted from the following two-line orbital elements,

1 15592U 85020A   16145.78492419  .00002377  00000-0  88360-4 0  9996
2 15592  82.5377 348.0095 0015898 107.7824 252.5151 15.26905656704990
Epoch (UTC): 24 May 2016 18:50:17
Eccentricity: 0.0015898
inclination: 82.5377°
perigee height: 474 km
apogee height: 496 km
right ascension of ascending node: 348.0095°
argument of perigee: 107.7824°
revolutions per day: 15.26905656
mean anomaly at epoch: 252.5151°
orbit number at epoch: 70499

The dashed part of the orbit path shows where the satellite is in the earth's shadow,  

DLR